CST,Max TemperatureF,Mean TemperatureF,Min TemperatureF,Max Dew PointF,MeanDew PointF,Min DewpointF,Max Humidity, Mean Humidity, Min Humidity, Max Sea Level PressureIn, Mean Sea Level PressureIn, Min Sea Level PressureIn, Max VisibilityMiles, Mean VisibilityMiles, Min VisibilityMiles, Max Wind SpeedMPH, Mean Wind SpeedMPH, Max Gust SpeedMPH,PrecipitationIn, CloudCover, Events, WindDirDegrees
2013-1-1,42,38,33,41,36,32,100,91,76,30.25,30.15,30.03,10,8,3,13,5,17,0.01,6,,324
2013-1-2,42,36,30,32,29,25,93,80,61,30.32,30.27,30.24,10,10,10,9,6,,0.00,4,,303
2013-1-3,51,37,23,30,26,21,93,70,33,30.46,30.40,30.31,10,10,7,10,3,,0.00,0,,349
2013-1-4,51,40,28,32,25,18,93,57,26,30.52,30.44,30.37,10,10,10,5,1,,0.00,2,,240
2013-1-5,51,42,33,36,33,28,93,72,50,30.37,30.31,30.24,10,10,10,13,3,,0.00,6,,189
2013-1-6,59,42,26,37,26,19,100,65,22,30.37,30.32,30.29,10,8,0,12,3,,0.00,0,,339
2013-1-7,53,40,28,30,26,21,87,61,30,30.40,30.28,30.16,10,10,10,12,6,,0.00,0,,97
2013-1-8,50,42,35,46,37,27,100,81,62,30.17,30.11,30.03,10,8,2,17,8,,0.36,7,,80
2013-1-9,53,52,50,54,51,46,100,95,87,30.21,30.15,30.08,10,7,3,21,13,28,0.88,8,,74
2013-1-10,64,55,44,61,50,41,100,82,59,30.11,29.96,29.86,10,8,2,18,12,24,0.03,6,,169
2013-1-11,71,56,42,50,44,41,93,67,33,29.98,29.90,29.82,10,10,10,18,7,24,0.00,1,,163
2013-1-12,68,52,35,66,52,34,100,87,68,29.89,29.80,29.64,10,7,0,17,7,24,0.88,8,,82
2013-1-13,42,34,26,34,28,21,93,77,53,30.30,30.11,29.85,10,10,5,17,11,26,0.03,3,,335
2013-1-14,48,36,23,25,21,18,86,61,34,30.39,30.29,30.24,10,10,10,15,7,18,0.00,0,,35
2013-1-15,35,30,26,30,26,21,93,79,64,30.29,30.20,30.14,10,9,1,13,5,16,0.05,5,,10
2013-1-16,48,36,24,28,19,12,87,55,27,30.25,30.19,30.13,10,10,10,12,5,,0.00,1,,289
2013-1-17,60,43,26,32,26,19,81,57,29,30.50,30.35,30.23,10,10,10,14,5,23,0.00,0,,333
2013-1-18,59,44,28,32,28,25,100,64,29,30.55,30.45,30.31,10,10,10,13,4,,0.00,0,,127
2013-1-19,64,47,30,37,32,27,87,62,34,30.31,30.24,30.17,10,10,7,13,5,16,0.00,0,,172
2013-1-20,66,50,33,41,37,32,100,69,35,30.26,30.19,30.11,10,10,7,12,3,16,0.00,0,,104
2013-1-21,59,47,35,39,33,28,93,66,34,30.31,30.23,30.15,10,10,10,10,5,,0.00,0,,84
2013-1-22,53,42,30,32,27,23,80,60,35,30.37,30.30,30.25,10,10,10,14,7,,0.00,0,,102
2013-1-23,71,53,35,50,39,28,88,66,43,30.31,30.24,30.16,10,10,10,15,6,20,0.00,2,,133
2013-1-24,51,46,41,50,41,32,94,83,66,30.26,30.18,30.13,10,8,1,20,8,24,0.00,6,,90
2013-1-25,60,50,41,45,40,32,93,79,52,30.21,30.15,30.05,10,7,1,10,6,,0.00,6,,46
2013-1-26,44,43,42,41,40,37,93,88,81,30.28,30.22,30.18,10,6,1,15,8,20,0.00,8,,94
2013-1-27,62,52,42,59,49,41,100,90,72,30.17,30.08,29.99,10,4,0,15,8,18,0.00,7,,109
2013-1-28,71,66,62,63,61,59,94,81,68,30.07,29.99,29.91,10,10,10,18,10,21,0.00,7,,155
2013-1-29,71,61,51,64,59,46,94,84,60,29.91,29.69,29.48,10,9,3,28,14,38,0.54,6,,180
2013-1-30,51,42,33,46,31,23,87,65,40,30.11,29.89,29.63,10,10,10,23,12,32,0.00,3,,276
2013-1-31,64,46,28,30,25,18,86,53,18,30.34,30.17,30.10,10,10,10,20,5,23,0.00,0,,243